Theta_e
315 315 312 310 309 308 307 308 307 306 306 307 307 311 314 313 312 310 308 308 309 309 309 308 306 308 310 311 314 316 318 320 321 323 324 323 324 325 324 325 324 324 325 325 325 326 325 325 323 318 318 322 323 323 324 326 328 329 328 328 328 328 329
315 315 313 311 309 308 308 307 307 307 306 306 306 306 307 306 305 305 304 304 304 305 306 305 304 304 304 306 307 309 312 315 316 318 320 319 321 322 322 323 322 322 324 324 323 324 324 324 324 322 321 322 321 320 321 322 323 325 327 328 328 327 329
314 313 314 313 311 310 309 308 309 310 308 306 306 305 305 305 305 305 304 304 304 304 304 304 303 303 303 303 303 304 305 307 308 309 311 312 312 314 316 318 319 321 321 322 322 322 321 322 322 323 322 320 318 316 314 314 317 321 324 326 326 326 327
312 311 313 313 311 312 313 311 312 314 311 307 306 306 306 305 305 305 305 305 304 304 304 304 304 304 304 303 303 303 302 302 303 303 303 304 304 305 307 308 311 314 314 316 318 315 314 317 318 319 319 318 317 316 313 316 319 320 321 323 324 324 326
311 310 313 314 313 313 315 314 314 315 314 310 307 306 306 306 305 305 305 305 304 304 304 304 305 305 305 305 304 304 303 303 303 302 302 302 302 302 302 302 303 304 305 307 309 307 308 310 311 313 315 315 317 318 317 318 320 320 321 322 323 323 325
311 311 314 316 315 315 316 316 314 315 315 313 311 309 307 306 306 305 305 305 305 305 304 305 305 305 305 305 305 304 304 304 304 304 303 303 303 302 303 302 302 302 302 303 303 303 305 306 309 313 315 314 315 315 315 316 317 318 320 322 322 323 324
312 311 314 316 317 316 316 316 314 315 316 315 314 313 308 306 306 306 306 305 305 305 305 305 305 305 305 305 305 304 304 304 304 304 304 303 303 303 303 303 303 303 303 303 302 303 304 304 308 311 310 310 310 310 312 314 316 317 318 320 322 322 322
313 311 312 315 317 316 316 316 315 314 315 315 316 315 309 306 307 306 306 305 305 305 304 304 305 304 305 304 304 304 304 304 304 303 303 303 302 302 302 302 302 302 302 303 303 303 303 304 304 305 305 308 310 310 311 312 314 317 319 319 320 320 321
312 312 313 314 314 314 315 315 315 314 314 315 316 314 309 307 307 306 306 306 305 305 304 304 304 304 304 304 304 304 304 304 304 303 302 302 301 301 301 301 301 301 301 302 302 302 303 303 303 303 304 308 311 312 312 312 313 316 318 320 320 319 321
310 310 311 311 310 311 312 313 315 314 313 314 315 312 308 308 307 307 307 306 306 306 305 304 304 304 304 304 304 304 304 304 304 303 302 302 301 301 300 300 299 300 300 300 301 301 301 302 302 302 303 306 310 312 313 313 314 314 315 317 319 318 319
311 310 309 309 309 310 310 311 313 313 312 313 313 312 310 309 308 307 307 307 307 307 306 305 305 304 304 304 304 303 303 303 303 303 303 302 302 301 300 299 299 300 300 299 299 299 300 301 301 302 303 305 308 310 312 314 314 314 313 314 316 319 320
313 311 310 309 309 310 310 311 312 312 312 312 312 312 312 311 309 308 307 307 307 307 307 306 306 305 304 304 303 303 303 303 303 303 303 303 302 301 301 300 299 299 298 299 300 299 299 300 300 301 303 304 306 307 309 311 313 313 313 314 315 316 317
313 312 311 311 310 310 310 310 311 312 313 312 312 312 312 312 311 310 308 307 307 307 307 307 306 306 305 304 304 303 303 303 303 303 303 303 303 302 301 300 299 298 296 298 301 300 300 300 299 300 301 303 304 304 305 308 312 312 312 313 313 313 313
314 314 313 312 311 311 310 310 311 312 313 313 313 313 312 313 313 311 310 308 308 307 307 307 307 307 307 306 305 304 303 303 303 303 303 303 303 302 301 300 299 298 297 297 298 301 304 303 303 304 304 303 304 305 305 307 310 311 311 311 312 312 312
313 313 314 314 314 313 313 311 311 311 312 314 314 314 313 313 313 313 312 310 309 308 307 307 307 307 307 307 307 306 304 303 303 303 303 303 303 303 302 301 300 299 297 296 297 300 304 304 304 306 306 305 304 304 303 304 307 308 309 309 309 310 310
314 313 312 312 313 314 314 314 313 312 312 314 315 315 314 314 314 314 313 312 311 310 309 309 308 308 308 308 308 307 306 305 304 303 303 303 303 303 302 302 301 299 298 297 296 298 301 302 303 305 305 305 305 304 303 301 301 304 306 306 306 306 308
319 318 317 315 314 314 314 315 315 314 314 314 315 316 315 314 314 315 315 313 312 312 311 310 310 309 309 309 309 308 307 306 305 304 303 303 303 303 302 301 301 299 298 298 297 298 301 302 302 303 304 305 305 306 305 303 303 303 305 306 305 304 305
320 320 320 319 317 315 314 314 314 315 315 315 316 317 317 316 315 315 315 314 313 313 312 311 311 311 311 311 310 309 308 307 305 304 303 303 303 302 301 300 299 298 298 297 297 298 300 299 299 300 302 303 304 305 305 305 305 305 305 306 306 305 304
320 320 320 320 319 317 316 314 314 314 315 316 316 317 317 317 316 315 315 315 314 313 312 312 311 311 312 312 312 311 309 307 306 304 303 303 302 301 300 298 298 297 297 296 297 297 297 296 297 299 300 301 302 302 303 303 304 304 305 305 306 306 306
321 322 323 322 321 320 320 318 318 317 316 316 316 317 317 317 316 316 316 316 315 314 313 313 312 312 312 312 312 312 310 307 306 304 303 302 302 300 298 297 296 296 296 295 295 295 295 295 297 299 300 302 302 302 302 302 302 302 303 303 304 305 306
317 319 320 322 322 323 322 321 321 320 319 318 317 317 317 316 315 316 316 316 316 315 314 313 312 312 312 312 312 312 309 307 305 304 303 302 302 300 297 296 295 295 294 294 294 294 294 294 295 296 298 300 301 302 302 302 302 302 302 303 304 304 305
311 312 313 316 318 321 323 323 322 322 321 321 320 318 318 317 315 315 316 316 316 315 314 314 313 312 312 312 312 310 308 306 304 303 302 302 300 298 296 294 294 294 293 293 293 293 293 293 293 293 294 296 299 300 301 302 302 302 303 303 304 304 304
308 308 309 309 311 315 319 322 322 322 322 321 321 320 319 318 316 314 315 316 316 316 315 314 313 313 312 312 311 309 307 305 304 303 302 300 297 296 295 294 294 294 293 293 293 293 293 293 293 293 293 294 295 297 299 300 301 302 302 303 303 303 304
306 306 307 308 308 309 315 319 321 321 321 320 320 320 319 318 317 315 314 315 316 316 315 314 313 313 312 311 310 308 306 304 303 302 300 298 296 295 295 294 294 293 293 293 293 293 293 293 294 294 294 294 294 295 295 296 298 299 301 302 302 302 303
304 305 305 306 307 307 312 316 318 319 320 319 318 319 319 318 317 316 314 314 315 315 314 314 313 312 311 310 308 307 305 304 303 300 299 297 296 295 295 295 294 293 293 293 293 293 293 294 294 294 294 295 295 295 295 295 295 296 298 299 301 302 302
303 304 305 305 305 306 309 313 316 316 317 318 317 318 319 318 316 315 314 314 314 314 314 314 312 310 309 308 307 305 304 303 301 299 297 296 296 295 295 294 294 294 294 294 294 294 294 294 294 294 294 295 295 296 296 295 295 295 295 296 297 299 300
303 304 304 304 304 304 306 310 313 314 315 316 317 317 317 317 315 314 314 314 314 314 313 312 310 309 307 306 306 305 303 301 299 297 296 296 295 294 294 294 294 295 295 295 295 295 294 294 293 293 294 295 296 296 296 296 296 296 296 296 296 296 297
303 303 303 303 303 304 305 306 309 312 312 313 317 318 317 316 315 314 314 313 313 312 311 310 309 307 306 306 305 303 301 299 298 296 296 295 294 294 294 295 294 294 295 295 295 294 293 293 293 293 294 294 295 295 296 296 297 297 297 298 297 297 298
302 302 302 303 303 303 304 304 305 308 309 310 314 318 317 316 315 314 313 312 312 311 310 308 307 306 306 304 302 301 299 298 297 296 296 295 295 295 296 296 295 295 295 295 294 293 293 293 293 293 294 294 295 295 296 296 296 296 296 297 297 297 298
301 301 301 303 304 304 304 304 305 307 308 307 311 316 317 315 314 312 311 310 310 308 307 306 306 305 304 302 299 298 297 297 297 297 296 296 296 297 297 296 295 295 294 294 293 293 293 294 294 294 294 294 295 295 296 296 296 296 295 295 295 296 296
301 301 301 303 306 307 306 306 307 308 308 308 310 314 315 314 313 311 311 309 307 306 306 305 304 302 300 298 298 297 296 297 297 297 297 297 297 297 297 296 295 294 293 294 294 293 294 294 295 294 294 294 294 295 295 295 296 296 296 295 295 295 295
300 301 300 301 305 307 307 307 309 311 310 310 312 313 314 314 312 310 309 308 306 306 305 303 300 299 298 297 296 295 295 296 297 297 297 297 297 297 297 297 296 295 294 294 294 294 294 295 295 294 294 293 294 294 294 295 295 295 295 295 295 295 295
300 301 300 301 305 308 309 308 309 311 311 311 312 312 313 314 311 307 307 307 305 304 302 300 298 297 296 295 294 294 294 295 296 297 297 297 297 297 297 297 296 296 295 295 294 294 294 294 294 293 293 292 293 293 294 294 294 294 294 294 294 294 294
301 301 301 302 306 309 309 308 308 310 311 312 312 311 313 313 309 306 306 305 302 300 299 297 296 296 295 294 294 294 294 294 295 296 296 296 296 296 296 296 296 296 295 295 295 294 294 294 293 292 292 292 292 292 292 292 292 292 292 292 292 293 293
301 301 302 305 308 309 309 308 309 311 312 313 313 312 312 310 307 305 303 301 299 298 297 296 295 295 295 295 294 294 293 293 292 293 293 293 294 295 295 295 296 296 295 295 294 294 293 292 292 291 292 292 292 291 291 290 290 290 291 291 291 292 292
301 302 302 305 308 308 308 309 310 312 313 312 312 310 309 307 305 302 300 298 297 297 296 296 295 295 295 294 293 292 292 291 291 291 292 292 294 294 295 295 295 295 295 294 293 293 292 292 291 291 292 291 291 291 290 290 290 290 290 290 291 291 291
304 303 303 305 307 308 308 309 310 312 312 310 309 307 306 304 302 299 298 297 297 296 296 296 295 294 293 292 292 292 292 292 293 293 293 294 294 294 294 294 294 294 294 293 293 293 292 292 292 291 291 291 290 290 290 290 290 290 290 291 291 291 291
Wind_Speed
7 6 6 5 4 4 4 6 7 7 7 8 9 10 9 9 9 9 9 9 9 8 7 6 5 4 4 3 2 2 3 3 3 4 3 2 3 4 6 7 9 10 9 9 9 7 7 8 8 10 16 16 14 12 10 9 9 10 12 12 12 12 11
8 7 7 6 5 3 3 4 6 6 6 7 8 9 9 9 9 9 9 9 9 9 8 7 7 6 5 4 3 3 3 3 4 3 2 2 2 2 3 2 4 4 3 6 5 4 6 8 8 9 12 15 14 13 12 13 13 13 13 14 15 14 13
11 9 8 7 5 3 2 2 4 5 5 6 6 7 7 7 7 8 7 7 8 8 8 8 9 9 8 8 6 5 3 3 3 3 3 3 4 5 5 4 3 3 4 4 2 3 5 7 8 7 9 12 15 17 17 17 15 15 14 14 17 16 13
13 12 10 8 6 5 4 3 3 5 4 4 4 4 5 5 5 5 5 5 6 7 7 8 9 9 10 10 9 8 6 5 3 1 2 3 4 6 6 7 6 5 6 5 5 7 7 7 9 10 10 10 12 15 16 16 15 15 15 15 17 16 13
14 13 11 9 7 6 6 5 5 5 4 3 2 2 2 2 3 3 3 4 4 5 6 6 7 7 8 9 9 8 7 6 5 4 3 2 1 3 4 5 7 8 9 8 8 9 9 9 10 10 10 10 11 12 12 13 14 15 14 14 15 15 13
15 14 11 9 8 8 7 7 6 5 5 4 3 2 0 0 1 1 2 2 3 3 4 5 6 6 6 7 7 7 7 6 6 6 6 5 5 4 4 4 5 7 8 9 10 10 10 10 8 8 9 10 11 13 12 12 13 13 12 11 12 12 12
16 15 13 10 9 9 8 8 7 6 6 6 5 4 3 2 1 1 1 1 1 2 2 3 4 5 6 6 6 6 6 6 6 7 8 8 7 6 6 6 6 6 7 9 9 10 11 11 10 10 12 13 13 14 13 11 11 10 10 9 9 10 10
16 16 15 12 11 10 9 9 7 7 6 6 7 6 5 4 3 3 3 2 2 1 1 2 3 4 4 5 5 5 6 7 8 8 9 9 8 8 7 6 6 6 6 7 8 9 10 11 11 12 13 13 13 14 12 11 10 9 8 8 8 8 9
18 17 16 15 14 13 11 10 9 8 7 7 8 8 6 5 5 5 4 4 3 3 2 1 2 2 3 3 4 5 6 8 9 10 10 10 9 9 8 7 6 6 6 6 6 7 8 9 10 11 11 10 11 12 12 12 10 7 6 6 7 6 6
19 19 18 17 16 16 14 12 11 11 10 9 10 9 7 7 7 7 6 6 6 5 4 3 2 2 3 3 4 5 6 8 9 10 10 11 11 11 10 9 7 7 7 7 6 7 8 9 9 9 9 8 9 10 11 12 11 9 8 7 7 8 7
18 19 20 19 17 17 15 14 14 13 13 12 11 10 9 9 8 9 9 8 7 7 5 4 4 3 3 4 4 5 6 7 8 9 9 10 11 12 11 11 10 9 10 10 8 8 8 8 8 9 9 8 9 10 11 12 13 12 10 9 8 7 8
19 20 20 21 20 19 18 17 16 15 14 14 14 13 11 10 10 10 10 10 10 8 7 5 4 4 4 5 5 6 6 7 8 8 9 10 11 12 12 13 13 12 13 12 11 10 9 8 7 7 8 9 10 11 12 12 13 12 10 10 10 11 11
21 21 20 21 21 20 20 19 18 16 16 16 16 15 14 12 12 11 12 12 11 11 9 7 5 4 4 5 6 7 7 8 9 9 10 11 12 12 13 15 15 14 15 12 9 10 10 9 9 8 7 8 9 12 13 13 14 14 13 13 14 14 14
25 23 22 22 22 21 21 21 20 18 17 18 18 18 17 15 14 13 13 13 13 13 11 9 7 6 5 5 6 7 7 8 8 9 10 11 12 13 14 14 15 16 16 12 9 8 8 9 10 9 9 8 8 11 12 13 15 16 15 14 13 14 14
30 28 25 24 24 23 23 23 22 21 20 19 20 20 19 18 17 16 15 15 15 15 14 12 10 9 8 7 7 7 7 7 8 9 10 11 12 13 14 13 14 16 16 14 11 8 7 8 7 7 9 10 10 11 12 13 15 16 17 16 15 15 15
30 31 31 30 29 27 26 25 25 25 23 21 21 22 22 21 19 18 18 17 17 16 15 14 12 11 11 9 9 9 9 8 9 10 11 11 12 13 14 14 14 15 15 14 13 10 8 8 7 7 10 11 11 13 14 16 17 17 18 19 18 17 15
23 26 29 31 31 31 31 29 28 27 26 25 24 24 25 24 22 21 21 20 19 18 17 16 14 14 13 11 11 11 11 11 11 12 12 13 13 14 14 14 14 14 14 13 13 11 8 9 9 9 10 11 11 13 15 17 17 17 18 19 20 20 18
23 24 26 28 30 33 34 34 32 29 27 29 29 28 28 28 26 25 25 24 22 20 18 18 17 16 15 13 13 14 14 14 14 13 14 14 15 15 14 14 13 13 13 13 12 11 10 11 12 11 11 11 11 12 14 15 16 17 18 19 20 21 21
21 22 25 28 32 34 36 37 38 34 30 30 32 33 33 32 30 29 28 26 24 22 20 19 19 18 17 15 15 15 16 16 16 15 15 15 15 15 14 13 13 13 13 13 12 12 12 14 14 13 12 12 12 13 15 16 18 19 19 20 20 20 20
13 15 18 21 25 27 30 33 35 35 33 33 34 36 36 36 34 32 30 28 26 24 22 22 21 20 18 17 17 18 18 18 18 18 17 17 16 15 14 14 13 13 13 12 12 12 13 14 14 13 13 13 13 14 15 17 18 19 21 21 21 20 19
9 10 11 13 16 17 20 23 24 26 29 31 34 35 36 37 36 34 33 31 29 27 25 24 23 21 19 19 19 19 19 19 19 19 18 18 17 16 16 15 14 14 14 14 14 14 15 15 14 15 14 14 14 15 16 17 17 18 20 21 21 20 19
10 12 12 12 12 12 14 17 18 20 24 27 31 32 32 36 39 37 35 34 32 30 28 26 24 21 20 20 20 20 19 19 19 19 18 17 17 16 16 15 16 16 16 16 17 17 17 17 17 17 16 15 15 16 17 17 17 18 19 20 20 20 19
12 14 16 16 16 14 12 13 14 17 19 20 23 25 26 34 39 36 34 36 36 33 30 27 24 22 21 21 20 20 20 19 18 18 16 15 15 15 16 16 17 19 19 18 18 18 18 18 19 19 19 18 18 18 18 19 19 19 19 20 21 20 20
15 16 17 18 19 18 14 12 11 13 14 15 20 26 29 33 36 33 34 38 37 35 32 28 24 23 22 21 21 20 20 19 18 17 15 14 13 14 14 15 17 20 21 19 18 20 21 21 21 22 22 22 21 21 22 22 22 22 21 22 22 21 22
18 18 19 19 19 19 15 12 11 11 12 13 19 27 30 30 31 32 36 41 39 35 32 27 24 23 22 21 21 20 18 18 17 15 14 13 12 12 13 16 18 20 21 20 20 21 21 22 23 25 26 25 25 24 24 25 25 25 24 24 24 23 23
20 20 20 20 21 21 17 12 11 12 13 12 14 19 24 26 29 33 38 43 41 35 30 26 24 23 22 20 19 17 15 15 15 13 13 14 14 15 16 16 17 17 18 19 21 21 20 20 22 26 28 28 27 27 27 27 27 27 27 28 28 29 27
21 21 21 21 22 23 21 15 11 11 14 15 14 15 19 24 28 33 38 42 39 33 29 26 24 21 18 17 16 14 13 14 14 13 14 15 17 18 18 17 17 17 17 18 18 19 21 23 25 26 26 26 26 26 27 28 27 27 27 27 30 32 30
23 23 23 22 23 24 24 21 17 12 12 16 17 17 19 23 27 32 37 38 36 32 29 25 20 17 15 14 13 12 13 14 14 14 15 16 17 17 16 17 19 19 19 19 19 22 25 27 29 29 29 29 28 27 27 25 23 23 23 24 27 28 26
25 25 24 23 23 24 23 23 21 16 13 15 18 18 20 23 28 32 34 35 33 28 24 19 15 13 12 11 11 12 13 14 14 13 14 15 16 15 15 17 19 20 20 21 22 26 30 31 31 32 31 30 29 27 26 24 24 26 27 27 29 29 29
26 25 24 22 21 21 22 21 19 17 16 16 17 18 19 23 30 35 35 32 26 20 16 14 12 11 10 9 10 10 10 10 10 11 12 14 14 14 15 18 21 23 24 25 25 28 32 33 33 33 32 30 28 26 25 24 24 26 28 29 31 32 34
25 25 24 22 19 19 20 19 16 15 15 14 15 16 19 25 33 37 34 28 21 15 12 11 10 9 8 8 9 9 8 8 9 11 12 14 14 15 16 19 24 28 29 28 28 31 34 34 33 32 30 28 26 25 24 23 23 24 25 28 30 31 31
24 23 23 21 19 19 19 17 14 13 12 13 13 15 21 30 36 35 29 24 19 15 12 9 8 7 7 7 9 9 8 9 10 12 13 14 15 15 16 19 23 27 28 29 30 34 36 34 32 30 26 23 25 25 23 22 23 24 24 25 25 26 25
23 22 22 21 19 18 17 16 15 14 13 13 13 14 23 33 35 30 24 20 16 13 10 8 7 7 7 8 9 10 11 11 12 13 14 15 16 17 17 19 20 22 26 29 32 34 35 34 35 33 27 23 25 24 22 22 24 25 26 25 25 25 24
23 22 21 20 18 17 17 16 16 16 16 17 16 18 26 33 31 26 21 16 13 11 10 9 8 7 7 9 10 12 14 14 15 15 15 16 17 18 19 20 19 21 26 30 32 35 36 36 36 35 30 28 28 28 28 29 28 26 27 27 25 25 26
25 24 21 18 16 17 18 19 18 19 21 22 23 25 28 29 26 22 18 15 13 12 10 8 6 6 8 9 11 12 13 15 16 17 19 20 19 20 21 21 21 23 28 32 34 35 36 35 33 33 32 31 31 30 30 30 27 25 25 24 23 24 24
26 25 22 19 17 17 19 21 21 22 23 26 28 28 28 26 22 18 17 15 12 9 7 5 4 6 7 9 10 11 12 14 16 18 20 22 22 22 23 22 22 26 30 32 32 33 32 31 30 30 29 28 26 26 27 26 24 24 24 24 25 26 25
22 23 22 19 18 19 21 23 23 24 27 29 28 27 27 25 21 18 16 13 9 6 3 1 2 4 6 7 8 9 11 13 15 17 19 21 23 24 24 22 24 27 30 30 31 30 29 26 25 24 24 23 22 22 23 23 22 23 25 26 26 28 28
Wind_Direction
157 157 168 163 151 137 112 98 91 81 79 84 88 93 95 97 98 95 94 94 95 94 98 109 120 135 146 158 167 169 162 148 151 152 166 191 172 204 221 230 249 248 240 248 250 246 249 248 246 263 279 286 283 277 273 262 255 256 259 257 254 252 255
167 163 166 169 165 153 124 105 99 93 89 90 92 94 95 94 91 87 83 84 86 88 86 86 88 94 104 119 141 170 180 183 195 175 148 159 150 175 201 231 272 279 252 246 250 247 249 253 253 258 270 279 285 283 275 270 271 272 271 267 264 260 254
177 172 169 175 179 172 161 127 112 109 101 97 96 96 96 93 88 82 77 76 77 79 76 72 72 74 78 84 93 110 132 164 202 215 216 229 239 235 234 246 281 322 294 273 273 259 247 256 268 274 276 284 292 290 284 284 282 275 271 270 270 266 255
183 182 181 185 190 187 183 174 145 138 130 114 100 96 96 92 88 84 79 77 76 74 72 69 68 70 73 75 77 81 88 98 109 139 207 231 246 246 243 244 249 262 268 269 276 270 259 259 269 277 282 287 292 290 289 293 287 274 270 268 267 266 256
187 188 190 193 198 198 191 184 174 165 163 156 127 104 95 84 83 81 78 77 73 73 78 79 78 76 74 73 72 70 68 68 66 60 50 28 307 283 275 262 261 264 262 263 269 272 267 263 268 276 282 289 290 286 285 287 285 281 275 265 261 263 257
191 191 194 199 202 201 196 194 191 182 182 186 185 191 229 31 61 58 62 66 62 67 79 86 86 83 77 72 66 61 59 55 47 41 33 23 12 352 335 317 302 290 283 283 284 283 284 283 283 285 286 289 289 288 290 288 286 285 277 265 259 258 255
195 192 194 200 202 201 199 201 202 193 192 197 196 211 250 272 255 284 313 357 31 47 61 76 83 82 80 74 63 54 47 43 38 33 26 22 18 10 358 344 330 317 310 308 304 299 297 297 296 291 293 297 295 293 295 294 291 287 280 271 266 262 260
199 195 195 200 202 203 204 206 207 200 201 203 198 210 243 257 251 266 281 292 316 342 12 57 72 75 75 71 58 46 36 30 27 25 23 21 20 17 12 1 347 335 325 318 314 306 299 297 295 291 293 298 299 299 298 297 297 293 287 284 280 273 265
205 202 199 201 200 201 205 210 213 210 206 200 199 216 239 244 245 258 269 276 289 302 315 357 50 57 59 59 43 26 22 19 16 15 14 13 15 16 15 12 1 346 335 324 313 306 300 297 295 292 290 288 293 297 299 301 300 292 293 298 291 281 272
208 208 206 205 202 200 204 209 215 222 221 210 212 228 236 232 235 243 254 263 274 284 296 317 342 4 11 19 20 14 12 10 8 8 5 4 6 6 7 10 8 357 348 340 325 315 310 304 297 291 286 278 275 283 291 295 292 283 283 289 289 288 282
208 211 211 210 206 204 207 211 216 226 233 230 232 239 235 228 230 233 240 250 258 268 279 294 310 324 334 340 347 354 359 1 1 360 357 357 358 359 0 1 3 359 351 349 342 335 330 319 310 299 289 279 268 270 277 284 286 282 278 279 277 279 281
210 210 213 215 215 215 215 216 218 223 233 238 240 242 238 232 231 229 234 241 245 253 261 267 282 302 313 319 325 331 341 348 349 347 347 348 350 352 353 355 358 354 349 349 345 341 339 331 321 306 289 283 275 270 269 273 279 278 276 279 272 265 272
218 217 219 221 221 223 223 223 224 224 231 238 241 243 242 239 236 233 234 238 241 244 247 249 254 271 292 302 309 317 325 334 336 335 335 338 342 346 349 350 350 347 347 347 338 332 333 329 328 319 298 287 281 279 277 273 274 274 274 278 278 275 275
228 228 230 232 232 231 230 230 231 232 236 240 241 243 243 242 240 237 235 235 239 241 242 244 248 256 271 284 297 308 314 319 322 324 326 329 334 339 344 345 341 339 342 342 336 327 317 315 323 320 309 303 290 285 284 278 278 281 281 280 279 279 278
238 237 238 239 240 240 239 238 237 238 240 241 243 244 243 244 242 239 237 235 236 240 242 243 246 253 265 279 295 305 307 306 305 308 313 317 322 327 332 334 332 330 333 334 336 330 303 300 306 295 290 294 289 287 287 284 280 282 285 285 282 282 283
248 249 249 247 247 246 247 246 242 240 240 241 244 245 243 243 243 241 237 236 237 239 242 244 247 252 262 276 293 302 304 301 299 301 304 307 310 315 320 324 325 325 327 328 328 324 309 304 304 290 285 288 288 288 290 293 291 288 288 290 292 292 290
255 259 260 259 257 253 250 249 248 246 244 243 243 245 244 242 242 241 238 236 238 240 242 246 249 255 264 277 288 298 303 302 299 300 300 301 304 308 313 317 319 319 321 320 319 318 307 298 298 294 290 291 291 289 290 295 296 293 290 291 295 296 294
254 257 261 261 259 258 257 255 254 251 248 248 246 244 244 242 238 237 238 238 239 240 244 247 251 256 264 275 284 292 297 299 298 297 297 299 301 305 309 312 314 314 316 316 314 308 296 292 294 292 287 286 285 284 284 286 288 286 284 285 289 293 294
253 257 259 256 255 258 260 259 259 255 249 248 249 247 245 243 239 236 237 238 239 241 242 245 249 254 260 267 276 284 289 292 292 292 293 295 298 302 306 307 308 309 311 312 309 303 298 298 297 292 286 282 280 278 278 281 284 284 283 282 284 288 290
264 262 260 257 255 258 259 259 260 258 251 247 250 253 250 246 239 234 235 237 238 240 241 242 245 250 255 261 269 276 281 284 285 286 288 290 294 300 302 303 305 307 308 307 303 300 298 298 295 291 286 282 279 277 277 280 283 283 284 284 284 284 285
299 286 274 263 257 256 257 257 256 259 259 254 252 256 256 251 241 232 233 236 236 237 238 240 242 245 251 258 264 270 275 277 278 280 282 284 290 296 300 303 305 306 306 304 301 299 297 295 291 287 284 280 276 276 276 277 278 279 281 282 282 282 282
315 314 310 298 281 265 258 256 252 255 261 260 257 256 253 246 237 228 227 229 230 232 234 235 239 244 249 255 261 267 271 272 273 274 278 283 289 296 300 303 303 303 303 303 301 300 299 298 295 293 290 282 274 272 273 272 273 273 275 276 277 278 279
322 321 319 315 308 293 271 260 255 252 253 255 254 248 235 230 229 225 227 229 228 229 231 233 238 242 245 251 258 264 268 269 269 271 277 284 292 298 302 303 302 302 303 302 300 300 299 298 296 295 293 288 281 275 270 267 267 268 270 271 272 273 273
326 323 318 314 311 304 287 268 261 256 250 241 235 234 235 239 238 233 232 233 229 227 230 231 235 239 244 251 257 262 266 267 270 274 279 288 295 298 300 300 300 302 305 306 303 304 306 304 301 297 294 290 287 282 277 272 269 266 265 266 268 268 268
320 317 313 309 306 301 291 276 269 263 249 234 234 244 253 255 249 238 231 227 225 224 226 227 231 239 246 251 256 260 264 268 273 278 284 291 294 291 290 293 297 301 303 304 304 306 309 309 308 306 302 298 292 287 283 279 275 270 267 265 265 265 264
316 312 309 306 302 298 292 280 275 274 266 251 245 258 265 256 246 238 228 222 222 223 224 227 233 241 246 249 254 260 265 270 277 282 286 291 293 292 291 293 294 296 298 301 306 308 308 306 306 307 306 303 299 295 290 285 281 277 272 266 262 261 261
312 308 305 302 299 297 295 286 278 277 280 275 264 264 266 255 243 236 227 223 222 222 223 231 236 239 243 249 258 266 272 278 283 284 286 292 296 296 295 292 291 294 296 298 300 301 301 304 306 305 303 299 296 293 291 289 287 284 279 273 268 265 263
311 307 304 300 297 296 294 291 286 278 278 280 275 270 268 257 243 235 227 223 222 222 225 231 234 235 242 253 264 273 279 284 287 288 290 295 298 297 294 293 296 299 301 300 299 299 302 306 306 304 302 298 294 290 287 283 278 275 272 270 270 269 266
311 307 303 299 297 293 290 289 287 282 275 274 269 265 264 254 240 229 221 217 219 221 222 222 225 232 244 256 268 277 283 288 290 290 292 294 295 292 286 287 294 298 300 301 301 302 304 306 305 304 302 299 295 290 285 278 274 273 271 266 260 255 254
308 307 304 298 292 289 286 282 278 275 274 273 265 259 256 245 230 221 217 215 212 208 207 212 223 236 245 254 267 278 284 286 281 282 287 288 287 285 280 282 291 297 301 302 300 301 303 304 303 303 301 298 293 287 283 280 278 279 279 276 270 262 257
304 304 303 296 285 280 280 273 266 263 263 263 261 255 247 235 224 218 216 211 201 192 195 207 219 229 239 251 265 276 279 276 274 277 283 284 284 284 283 285 294 301 304 303 300 300 302 301 301 302 299 296 292 286 282 281 279 278 278 278 278 276 272
302 299 297 293 282 274 272 265 255 248 243 245 247 243 238 231 222 213 208 204 199 196 197 202 212 221 235 255 270 277 274 273 277 280 283 285 286 285 284 287 295 301 303 300 298 299 300 300 302 303 299 291 287 284 282 281 280 279 277 274 274 274 274
303 298 292 286 277 267 264 259 249 240 236 236 229 224 232 230 217 202 198 198 193 186 184 194 209 221 239 256 267 275 277 278 280 283 286 287 287 287 287 288 293 295 295 295 295 296 297 298 301 302 297 286 282 282 281 279 275 272 271 271 271 269 269
302 297 286 278 269 258 256 257 249 239 234 228 219 223 232 226 209 193 190 189 172 161 169 183 196 216 245 264 275 284 288 288 286 286 287 287 288 289 289 289 291 290 288 288 288 289 291 295 298 297 291 284 282 281 280 278 275 271 269 270 270 269 268
296 295 283 269 259 254 255 256 248 238 236 234 233 233 227 212 195 182 173 164 157 162 175 188 209 243 269 283 292 297 298 295 294 293 293 291 291 290 290 291 292 287 284 284 285 287 290 292 292 289 287 285 284 283 280 278 275 273 271 270 269 268 267
291 291 278 261 255 254 253 251 243 236 237 237 232 223 207 191 180 168 158 158 166 175 182 203 250 282 292 296 299 299 299 298 298 298 297 297 296 295 294 292 288 284 284 287 288 289 290 290 287 285 285 284 282 280 279 275 272 270 269 268 266 265 264
282 283 272 257 251 245 241 241 239 236 236 230 213 194 181 173 166 158 155 157 159 155 162 237 295 306 303 300 301 304 305 306 307 307 306 306 304 301 297 292 291 294 297 298 298 299 298 298 295 292 291 290 288 286 280 273 269 268 268 267 265 264 264